Casper, WY

2:30 PM MST on December 06, 2019 (GMT -0700)
Natrona County International

Weather History for KCPR - October, 2019

Change the Weather History Date:

Wednesday, October 9, 2019

  Actual Average Record
Temperature  
Mean Temperature 37 °F 47 °F  
Max Temperature 55 °F 62 °F 83 °F (2003)
Min Temperature 19 °F 33 °F 12 °F (2009)
Degree Days  
Heating Degree Days 28 18  
Month to date heating degree days 169 146  
Since 1 July heating degree days 340 431  
Cooling Degree Days 0 0  
Month to date cooling degree days 0 0  
Year to date cooling degree days 441 422  
Moisture  
Dew Point 23 °F    
Average Humidity 61    
Maximum Humidity 92    
Minimum Humidity 29    
Precipitation  
Precipitation 0.08 in 0.03 in 0.51 in (2005)
Month to date precipitation 0.38 0.35  
Year to date precipitation 11.08 10.51  
Snow  
Snow 0.80 in 0.20 in - ()
Month to date snowfall 0.8 1.8  
Since 1 July snowfall 0.8 3.6  
Since 1 September snowfall 0.8 3.6  
Snow Depth 0.00 in    
Sea Level Pressure  
Sea Level Pressure 29.92 in    
Wind  
Wind Speed 17 mph (NNE)    
Max Wind Speed 29 mph    
Max Gust Speed 35 mph    
Visibility 7 miles    
Events Snow    
T = Trace of Precipitation, MM = Missing Value Source: NWS Daily Summary

Daily Weather History Graph

Daily Weather History Graph

Search for Another Location

Airport or City:

Astronomy

Oct. 09, 2019 Rise Set
Actual Time 7:12 AM MDT 6:33 PM MDT
Civil Twilight 6:43 AM MDT 7:01 PM MDT
Nautical Twilight 6:10 AM MDT 7:34 PM MDT
Astronomical Twilight 5:37 AM MDT 8:07 PM MDT
Moon 5:14 PM MDT (10/9) 2:52 AM MDT (10/9)
Length of Visible Light 12h 18m
Length of Day
11h 21m
Waxing Gibbous, 85% of the Moon is Illuminated
Oct 9
Waxing Gibbous
Oct 13
Full
Oct 21
Last Quarter
Oct 27
New
Nov 4
First Quarter

Hourly Weather History & Observations

Time (MDT) Temp. Windchill Dew Point Humidity Pressure Visibility Wind Dir Wind Speed Gust Speed Precip Events Conditions
12:53 AM 54.0 °F - 23.0 °F 30% 29.56 in 10.0 mi SSW 12.7 mph - N/A   Clear
1:53 AM 52.0 °F - 23.0 °F 32% 29.58 in 10.0 mi NNW 10.4 mph - N/A   Clear
3:12 AM 39.0 °F - 36.0 °F 89% 29.78 in 10.0 mi North - - N/A   Mostly Cloudy
3:53 AM 37.0 °F 31.0 °F 34.0 °F 89% 29.66 in 10.0 mi NNE 8.1 mph - N/A   Overcast
4:53 AM 35.1 °F 28.6 °F 32.0 °F 89% 29.69 in 10.0 mi NNE 8.1 mph - N/A   Overcast
5:53 AM 34.0 °F 25.0 °F 30.9 °F 89% 29.70 in 10.0 mi NNE 12.7 mph - N/A   Overcast
6:53 AM 33.1 °F 23.0 °F 30.0 °F 89% 29.73 in 10.0 mi NNE 15.0 mph - N/A   Overcast
7:53 AM 32.0 °F 21.2 °F 30.0 °F 92% 29.74 in 4.0 mi NNE 16.1 mph - N/A   Overcast
8:44 AM 32.0 °F 20.8 °F 30.0 °F 92% 29.79 in 2.5 mi NNE 17.3 mph - N/A   Overcast
8:51 AM 32.0 °F 21.2 °F 30.2 °F 93% 29.79 in 3.0 mi NNE 16.1 mph - N/A   Overcast
8:53 AM 32.0 °F 21.6 °F 30.0 °F 92% 29.76 in 3.0 mi NNE 15.0 mph - N/A   Overcast
9:53 AM 32.0 °F 20.1 °F 28.9 °F 88% 29.78 in 9.0 mi NNE 19.6 mph - N/A   Overcast
10:53 AM 33.1 °F 20.9 °F 27.0 °F 78% 29.78 in 10.0 mi NNE 21.9 mph - N/A   Overcast
11:50 AM 33.8 °F 21.6 °F 24.8 °F 70% 29.83 in 6.0 mi NNE 23.0 mph 33.4 mph N/A   Haze
11:53 AM 33.1 °F 19.6 °F 25.0 °F 72% 29.79 in 6.0 mi NNE 27.6 mph 32.2 mph N/A   Haze
12:53 PM 33.1 °F 20.6 °F 24.1 °F 70% 29.81 in 6.0 mi NNE 23.0 mph 32.2 mph N/A   Haze
1:04 PM 33.1 °F 20.1 °F 24.1 °F 70% 29.85 in 6.0 mi NNE 25.3 mph 33.4 mph N/A   Haze
1:53 PM 30.9 °F 17.8 °F 24.1 °F 76% 29.84 in 6.0 mi North 23.0 mph 33.4 mph N/A   Haze
2:53 PM 30.9 °F 17.5 °F 21.9 °F 69% 29.92 in 10.0 mi NNE 24.2 mph 32.2 mph N/A   Overcast
3:53 PM 28.9 °F 14.8 °F 21.0 °F 72% 29.97 in 10.0 mi NNE 24.2 mph 31.1 mph N/A   Overcast
4:53 PM 28.0 °F 14.3 °F 21.0 °F 75% 30.03 in 10.0 mi NNE 21.9 mph 31.1 mph N/A   Overcast
5:30 PM 27.0 °F 13.5 °F 21.0 °F 78% 29.99 in 10.0 mi NNE 19.6 mph - N/A   Overcast
5:53 PM 26.1 °F 11.6 °F 19.9 °F 78% 30.07 in 10.0 mi NNE 21.9 mph - N/A   Overcast
6:00 PM 26.1 °F 11.3 °F 19.9 °F 78% 29.99 in 10.0 mi NNE 23.0 mph - N/A   Overcast
6:21 PM 25.0 °F 10.6 °F 19.9 °F 81% 30.01 in 10.0 mi NNE 20.7 mph 28.8 mph N/A   Overcast
6:48 PM 24.8 °F 11.9 °F 19.4 °F 80% 30.04 in 2.5 mi North 16.1 mph 28.8 mph 0.00 in Snow Light Snow
6:50 PM 24.8 °F 10.3 °F 19.4 °F 80% 30.05 in 1.5 mi North 20.7 mph 28.8 mph 0.00 in Snow Light Snow
6:53 PM 23.0 °F 9.2 °F 19.0 °F 85% 30.14 in 1.0 mi North 17.3 mph 25.3 mph 0.00 in Snow Light Snow
7:01 PM 21.9 °F 6.2 °F 19.0 °F 89% 30.05 in 0.8 mi North 21.9 mph 28.8 mph 0.01 in Snow Light Snow
7:53 PM 21.0 °F 7.6 °F 18.0 °F 88% 30.19 in 1.2 mi North 15.0 mph 25.3 mph 0.06 in Snow Light Snow
8:00 PM 21.0 °F 5.4 °F 17.1 °F 85% 30.09 in 3.0 mi NNE 20.7 mph 31.1 mph 0.00 in Snow Light Snow
8:09 PM 19.9 °F 3.9 °F 16.0 °F 85% 30.10 in 9.0 mi North 20.7 mph 29.9 mph 0.00 in   Overcast
8:53 PM 19.9 °F 3.5 °F 16.0 °F 85% 30.22 in 10.0 mi NNE 21.9 mph 27.6 mph 0.00 in   Overcast
9:53 PM 19.9 °F 4.8 °F 15.1 °F 81% 30.23 in 10.0 mi NNE 18.4 mph 27.6 mph N/A   Overcast
10:29 PM 19.9 °F 8.6 °F 16.0 °F 85% 30.14 in 10.0 mi North 10.4 mph - N/A   Overcast
10:53 PM 19.9 °F 8.6 °F 15.1 °F 81% 30.25 in 10.0 mi NNE 10.4 mph - N/A   Overcast
11:53 PM 19.9 °F 7.3 °F 15.1 °F 81% 30.25 in 7.0 mi NNE 12.7 mph - 0.00 in Snow Light Snow